STARLINK-30558, 58060

Orbit data source: Space-Track

STARLINK-30558, 58060 is a payload satellite owned by SpaceX/Seattle (US) in LEO that was launched on Fri, 13 Oct 2023 UTC via an FALCON 9 launch vehicle from the Air Force Eastern Test Range (AFETR). Payload-class satellites include a variety of spacecraft equipped with specific instruments for various scientific and technological missions. These include communications satellites like Starlink; space stations such as the ISS; scientific satellites like the Hubble; Earth observation satellites from companies like Planet Labs, Umbra, and HawkEye 360; GPS; miniature CubeSats for education and research; and military/defense satellites.

Loading next visibility...
Identifier
58060, 2023-158K
Orbit
LEO
Country
Flag of USUS
Related business
Manufacturer
SpaceX/Seattle
Mission
Operational Commercial Communications
Bus & Motor
STARLINK V2M, Unknown motor
Mass
730 kg wet, ~700 kg dry
Launch date (UTC)
2023-10-13 (3 years ago)
Launch vehicle
FALCON 9
Launch site
Air Force Eastern Test Range (AFETR)
Object type
Payload
Rocket body
Debris
Shape & HBR
Box + 2 Pan, 17.7 m
Radar Cross Section
33.884 m², Large (>1 m²)

Expand to show TLE details & history
Last TLE update: 2 days ago

TLE from 2 days ago
0 STARLINK-30558
1 58060U 23158K   26171.06295919  .00001792  00000-0  74628-4 0  9996
2 58060  43.0030 169.1442 0001483 270.8344  89.2338 15.27573526149226
Epoch: 2026-06-20T01:30Z
TLE epoch observation values (Epoch: 2026-06-20T01:30:39.674Z)
Latitude
0.00002°
Longitude
-121.80405°
Altitude
482.831 km
Speed
7.626 km/s
True Right ascension
11h 16m 34s
True Declination
0° 00' 00"
Sunlit
Object was in daylight at epoch
Visualization orbit readout
Latitude
Unknown
Longitude
Unknown
Altitude
Unknown
Speed
Unknown
Apparent Right ascension
Unknown
Apparent Declination
Unknown
Sunlit
N/A
Visualization observer readout
Local Sidereal Time
21:31:30
Azimuth
Unknown
Elevation
Unknown
Doppler factor
Unknown
Orbital elements
Apogee altitude
486.031 km
Perigee altitude
483.995 km
Semi-major axis
6,863.15 km
Eccentricity
0.00015
Inclination
43.003°
RAAN
169.1442°
Arg. of periapsis
270.8344°
True anomaly
89.25079°
Mean anomaly
89.2338°
Eccentric anomaly
89.2423°
Mean motion
3.81731 °/min
Orbital period
94.31 mins
BSTAR
0.000074628
Loading maneuver chart data...
Computing Atmospheric mass density...
Loading historical data...
Loading historical data...
Loading historical data...
Loading historical data...
Loading historical data...
Loading historical data...
Loading historical data...

Documentation

Showing up to 5 results
|